GW2194 Weather Reports


Display with metric or nautical units.
time (UTC)temp
F
wind
direction
speed
MPH
gust
MPH
rain 1hr
in
rain 24hr
in
rain mn
in
humidity
%
barometer
mb
20260902141542 77 126 0.0 1.0 0.00 0.00 0.00 81 1024.4
20260902141037 76 62 0.0 1.0 0.00 0.00 0.00 81 1024.7
20260902140532 75 73 1.0 3.0 0.00 0.00 0.00 85 1024.7
20260902140027 75 24 1.0 3.0 0.00 0.00 0.00 84 1024.4
20260902135526 74 62 3.0 3.0 0.00 0.00 0.00 85 1024.8
20260902135022 74 59 2.0 3.0 0.00 0.00 0.00 83 1024.6
20260902134518 74 46 2.0 3.0 0.00 0.00 0.00 87 1024.6
20260902134018 73 66 2.0 3.0 0.00 0.00 0.00 85 1024.8
20260902133512 73 35 2.0 3.0 0.00 0.00 0.00 85 1024.7
20260902133012 73 58 1.0 2.0 0.00 0.00 0.00 87 1024.9
20260902132508 72 49 2.0 3.0 0.00 0.00 0.00 87 1024.7
20260902132003 73 57 2.0 3.0 0.00 0.00 0.00 87 1024.7
20260902131459 72 52 2.0 3.0 0.00 0.00 0.00 88 1024.7
20260902130958 72 64 2.0 2.0 0.00 0.00 0.00 90 1024.3
20260902130454 71 68 2.0 4.0 0.00 0.00 0.00 92 1024.8
20260902125949 70 84 0.0 2.0 0.00 0.00 0.00 96 1024.4
20260902125446 70 56 2.0 2.0 0.00 0.00 0.00 97 1024.7
20260902124941 70 107 0.0 1.0 0.00 0.00 0.00 97 1024.6
20260902124437 69 60 0.0 1.0 0.00 0.00 0.00 97 1024.6
20260902123932 68 52 1.0 2.0 0.00 0.00 0.00 97 1024.6
20260902123428 68 60 1.0 2.0 0.00 0.00 0.00 97 1024.4
20260902122926 68 44 1.0 2.0 0.00 0.00 0.00 97 1024.2
20260902122423 68 28 0.0 0.0 0.00 0.00 0.00 97 1024.3
20260902121918 69 339 0.0 0.0 0.00 0.00 0.00 97 1024.4
20260902121413 68 32 0.0 0.0 0.00 0.00 0.00 97 1024.3
20260902120908 68 89 0.0 0.0 0.00 0.00 0.00 97 1024.3
20260902120404 68 46 1.0 2.0 0.00 0.00 0.00 97 1024.2
20260902115903 68 50 0.0 1.0 0.00 0.00 0.00 97 1024.3
20260902115400 68 55 0.0 0.0 0.00 0.00 0.00 97 1024.2
20260902114856 68 322 0.0 0.0 0.00 0.00 0.00 97 1023.9
20260902114351 68 224 0.0 0.0 0.00 0.00 0.00 97 1024.2
20260902113846 68 224 0.0 0.0 0.00 0.00 0.00 97 1024.0
20260902113342 68 273 0.0 1.0 0.00 0.00 0.00 97 1023.9
20260902112841 68 315 0.0 0.0 0.00 0.00 0.00 97 1024.1
20260902112337 68 310 0.0 0.0 0.00 0.00 0.00 97 1024.3
20260902111833 68 0 0.0 1.0 0.00 0.00 0.00 97 1024.1
20260902111329 68 304 0.0 0.0 0.00 0.00 0.00 97 1024.3
20260902110824 68 315 0.0 0.0 0.00 0.00 0.00 97 1024.1
20260902110320 68 37 0.0 0.0 0.00 0.00 0.00 97 1024.2
20260902105820 68 37 0.0 0.0 0.00 0.00 0.00 97 1023.9
20260902105315 68 240 0.0 0.0 0.00 0.00 0.00 97 1024.2
20260902104810 68 222 0.0 1.0 0.00 0.00 0.00 97 1024.4
20260902104307 68 246 0.0 1.0 0.00 0.00 0.00 97 1024.1
20260902103806 68 255 1.0 2.0 0.00 0.00 0.00 97 1024.2
20260902103301 68 322 0.0 0.0 0.00 0.00 0.00 97 1024.2
20260902102756 68 261 0.0 0.0 0.00 0.00 0.00 97 1024.3
20260902102254 68 120 1.0 2.0 0.00 0.00 0.00 97 1024.3
20260902101749 68 224 0.0 0.0 0.00 0.00 0.00 97 1024.6
20260902101244 68 224 0.0 0.0 0.00 0.00 0.00 97 1024.4
20260902100743 68 235 0.0 0.0 0.00 0.00 0.00 97 1024.4
20260902100237 68 222 0.0 2.0 0.00 0.00 0.00 97 1024.1
20260902095732 69 322 0.0 0.0 0.00 0.00 0.00 97 1024.3
20260902095226 69 246 0.0 0.0 0.00 0.00 0.00 97 1024.6
20260902094721 69 246 0.0 0.0 0.00 0.00 0.00 97 1024.2
20260902094218 69 246 0.0 0.0 0.00 0.00 0.00 97 1024.4
20260902093716 69 246 0.0 1.0 0.00 0.00 0.00 97 1024.1
20260902093212 69 309 0.0 0.0 0.00 0.00 0.00 97 1024.3
20260902092712 69 309 0.0 0.0 0.00 0.00 0.00 97 1024.2
20260902092207 69 211 0.0 0.0 0.00 0.00 0.00 97 1024.4
20260902091701 69 224 0.0 0.0 0.00 0.00 0.00 97 1024.2
20260902091158 69 230 0.0 0.0 0.00 0.00 0.00 97 1024.2
20260902090654 69 259 2.0 2.0 0.00 0.00 0.00 97 1024.3
20260902090152 69 322 0.0 0.0 0.00 0.00 0.00 97 1024.3
20260902085647 69 322 0.0 0.0 0.00 0.00 0.00 97 1024.4
20260902085142 69 322 0.0 0.0 0.00 0.00 0.00 97 1024.2
20260902084638 69 266 0.0 1.0 0.00 0.00 0.00 97 1024.2
20260902084133 69 240 0.0 0.0 0.00 0.00 0.00 97 1024.0
20260902083629 69 240 0.0 1.0 0.00 0.00 0.00 97 1024.0
20260902083128 69 217 0.0 0.0 0.00 0.00 0.00 97 1024.3
20260902082624 69 230 0.0 0.0 0.00 0.00 0.00 97 1024.2
20260902082120 69 269 0.0 0.0 0.00 0.00 0.00 97 1023.9
20260902081617 69 309 0.0 0.0 0.00 0.00 0.00 97 1024.1
20260902081116 69 322 0.0 0.0 0.00 0.00 0.00 97 1024.3
20260902080612 69 279 0.0 0.0 0.00 0.00 0.00 97 1024.2
20260902080108 69 315 0.0 0.0 0.00 0.00 0.00 97 1023.9
20260902075607 69 269 0.0 0.0 0.00 0.00 0.00 97 1023.9
20260902075104 69 15 0.0 0.0 0.00 0.00 0.00 97 1023.9
20260902074559 69 309 0.0 0.0 0.00 0.00 0.00 97 1023.7
20260902074054 69 343 0.0 1.0 0.00 0.00 0.00 97 1023.8
20260902073549 69 50 0.0 1.0 0.00 0.00 0.00 97 1023.7
20260902073046 69 353 0.0 1.0 0.00 0.00 0.00 97 1023.6
20260902072541 69 6 0.0 1.0 0.00 0.00 0.00 97 1023.6
20260902072038 69 343 0.0 0.0 0.00 0.00 0.00 97 1023.7
20260902071537 69 340 1.0 2.0 0.00 0.00 0.00 97 1023.4
20260902071033 69 297 0.0 1.0 0.00 0.00 0.00 97 1023.6
20260902070529 70 347 0.0 0.0 0.00 0.00 0.00 97 1023.5
20260902070023 70 13 0.0 0.0 0.00 0.00 0.00 97 1023.7
20260902065517 69 321 0.0 0.0 0.00 0.00 0.00 97 1023.6
20260902065013 69 309 0.0 1.0 0.00 0.00 0.00 97 1023.4
20260902064509 69 252 0.0 0.0 0.00 0.00 0.00 97 1023.5
20260902064004 69 293 0.0 0.0 0.00 0.00 0.00 97 1023.5
20260902063503 69 230 0.0 0.0 0.00 0.00 0.00 97 1023.8
20260902062959 69 230 0.0 0.0 0.00 0.00 0.00 97 1023.8
20260902062457 69 315 0.0 0.0 0.00 0.00 0.00 97 1023.6
20260902061953 69 315 0.0 1.0 0.00 0.00 0.00 97 1023.7
20260902061448 69 310 0.0 0.0 0.00 0.00 0.00 97 1023.6
20260902060944 69 310 0.0 0.0 0.00 0.00 0.00 97 1023.9
20260902060440 69 310 0.0 0.0 0.00 0.00 0.00 97 1023.6
20260902055935 69 309 0.0 0.0 0.00 0.00 0.00 97 1023.8
20260902055431 69 309 0.0 0.0 0.00 0.00 0.00 97 1023.6
20260902054926 69 309 0.0 0.0 0.00 0.00 0.00 97 1023.8
20260902054421 69 322 0.0 0.0 0.00 0.00 0.00 97 1023.7
20260902053917 69 310 0.0 0.0 0.00 0.00 0.00 97 1023.8
20260902053412 69 326 0.0 0.0 0.00 0.00 0.00 97 1023.7
20260902052911 69 326 0.0 0.0 0.00 0.00 0.00 97 1023.5
20260902052406 69 309 0.0 0.0 0.00 0.00 0.00 97 1023.4
20260902051901 69 233 0.0 0.0 0.00 0.00 0.00 97 1023.6
20260902051356 69 230 0.0 1.0 0.00 0.00 0.00 97 1023.4
20260902050855 69 343 0.0 0.0 0.00 0.00 0.00 97 1023.7
20260902050355 69 309 0.0 0.0 0.00 0.00 0.00 97 1023.4
20260902045850 69 309 0.0 0.0 0.00 0.00 0.00 97 1023.2
20260902045346 69 309 1.0 1.0 0.00 0.00 0.00 97 1023.2
20260902044842 69 304 0.0 1.0 0.00 0.00 0.00 97 1023.3
20260902044337 70 326 0.0 0.0 0.00 0.00 0.00 97 1023.3
20260902043837 69 326 0.0 0.0 0.00 0.00 0.00 97 1023.3
20260902043333 69 37 0.0 0.0 0.00 0.00 0.00 97 1023.2
20260902042832 69 279 0.0 0.0 0.00 0.00 0.00 97 1023.2
20260902042327 70 230 0.0 0.0 0.00 0.00 0.00 97 1023.3
20260902041822 69 235 0.0 0.0 0.00 0.00 0.00 97 1023.4
20260902041322 70 235 0.0 0.0 0.00 0.00 0.00 97 1023.3
20260902040821 70 235 0.0 0.0 0.00 0.00 0.00 97 1023.1
20260902040317 70 235 0.0 0.0 0.00 0.00 0.00 97 1023.1
20260902035815 70 322 0.0 0.0 0.00 0.00 0.00 97 1023.1
20260902035311 70 322 0.0 0.0 0.00 0.00 0.00 97 1023.3
20260902034810 70 322 0.0 0.0 0.00 0.00 0.00 97 1023.1
20260902034305 70 295 0.0 2.0 0.00 0.00 0.00 97 1022.9
20260902033803 70 322 0.0 0.0 0.00 0.00 0.00 97 1022.9
20260902033258 70 37 0.0 0.0 0.00 0.00 0.00 97 1022.8
20260902032757 70 297 0.0 0.0 0.00 0.00 0.00 97 1023.0
20260902032252 71 32 0.0 0.0 0.00 0.00 0.00 97 1022.7
20260902031751 70 304 0.0 0.0 0.00 0.00 0.00 97 1023.0
20260902031247 70 246 0.0 0.0 0.00 0.00 0.00 97 1023.1
20260902030743 71 309 0.0 0.0 0.00 0.00 0.00 97 1023.1
20260902030238 71 322 0.0 1.0 0.00 0.00 0.00 97 1023.1
20260902025736 71 308 1.0 1.0 0.00 0.00 0.00 97 1023.4
20260902025232 71 343 0.0 0.0 0.00 0.00 0.00 97 1023.1
20260902024727 71 310 0.0 0.0 0.00 0.00 0.00 97 1023.0
20260902024222 71 310 0.0 0.0 0.00 0.00 0.00 97 1023.2
20260902023718 71 310 0.0 1.0 0.00 0.00 0.00 97 1023.0
20260902023213 71 309 0.0 0.0 0.00 0.00 0.00 97 1023.0
20260902022712 71 38 0.0 1.0 0.00 0.00 0.00 97 1023.5
20260902022208 71 322 0.0 0.0 0.00 0.00 0.00 97 1023.1
20260902021703 71 322 0.0 0.0 0.00 0.00 0.00 97 1022.9
20260902021158 71 321 0.0 0.0 0.00 0.00 0.00 97 1023.1
20260902020654 71 343 0.0 0.0 0.00 0.00 0.00 97 1023.1
20260902020150 71 301 0.0 0.0 0.00 0.00 0.00 96 1023.0
20260902015645 71 309 0.0 0.0 0.00 0.00 0.00 96 1023.1
20260902015142 71 297 0.0 0.0 0.00 0.00 0.00 96 1023.0
20260902014637 72 297 0.0 1.0 0.00 0.00 0.00 96 1023.0
20260902014133 72 343 0.0 0.0 0.00 0.00 0.00 96 1022.9
20260902013632 72 246 0.0 0.0 0.00 0.00 0.00 96 1023.0
20260902013128 72 321 0.0 0.0 0.00 0.00 0.00 96 1023.0
20260902012623 72 321 0.0 0.0 0.00 0.00 0.00 96 1022.9
20260902012118 72 297 0.0 0.0 0.00 0.00 0.00 96 1022.9
20260902011614 72 297 0.0 0.0 0.00 0.00 0.00 95 1022.9
20260902011113 72 343 0.0 0.0 0.00 0.00 0.00 95 1022.8
20260902010613 73 326 0.0 0.0 0.00 0.00 0.00 95 1022.8
20260902010109 73 322 0.0 0.0 0.00 0.00 0.00 95 1022.9
20260902005606 73 315 0.0 0.0 0.00 0.00 0.00 95 1023.0
20260902005103 73 322 0.0 0.0 0.00 0.00 0.00 94 1022.8
20260902004602 73 309 0.0 0.0 0.00 0.00 0.00 94 1022.8
20260902004057 73 322 0.0 1.0 0.00 0.00 0.00 94 1022.7
20260902003553 74 309 0.0 0.0 0.00 0.00 0.00 94 1022.8
20260902003048 74 299 0.0 0.0 0.00 0.00 0.00 93 1022.7
20260902002544 74 315 0.0 0.0 0.00 0.00 0.00 93 1022.5
20260902002038 75 217 0.0 0.0 0.00 0.00 0.00 92 1022.5
20260902001533 75 297 0.0 0.0 0.00 0.00 0.00 92 1022.3
20260902001028 75 297 0.0 0.0 0.00 0.00 0.00 91 1022.5
20260902000523 75 297 0.0 0.0 0.00 0.00 0.00 90 1022.2
20260902000018 76 0 0.0 1.0 0.00 0.00 0.00 90 1022.3
20260901235513 76 240 0.0 0.0 0.00 0.00 0.00 90 1022.2
20260901235008 77 242 0.0 1.0 0.00 0.00 0.00 89 1022.3
20260901234501 77 252 0.0 0.0 0.00 0.00 0.00 87 1022.3
20260901233956 77 265 1.0 2.0 0.00 0.00 0.00 86 1022.6
20260901233451 78 50 0.0 1.0 0.00 0.00 0.00 84 1022.6
20260901232947 78 322 0.0 2.0 0.00 0.00 0.00 83 1022.3
20260901232442 79 320 1.0 1.0 0.00 0.00 0.00 81 1022.3
20260901231937 80 329 2.0 3.0 0.00 0.00 0.00 79 1022.3
20260901231434 81 319 2.0 2.0 0.00 0.00 0.00 77 1022.5
20260901230930 81 13 0.0 2.0 0.00 0.00 0.00 74 1022.5
20260901230430 82 353 1.0 3.0 0.00 0.00 0.00 74 1022.2
20260901225925 82 352 1.0 3.0 0.00 0.00 0.00 74 1022.0
20260901225425 82 3 0.0 2.0 0.00 0.00 0.00 72 1022.3
20260901224920 82 63 3.0 5.0 0.00 0.00 0.00 71 1022.5
20260901224416 83 53 2.0 2.0 0.00 0.00 0.00 72 1022.2
20260901223912 84 271 2.0 2.0 0.00 0.00 0.00 70 1022.1
20260901223407 85 268 0.0 2.0 0.00 0.00 0.00 66 1022.3
20260901222903 87 256 1.0 2.0 0.00 0.00 0.00 63 1022.3
20260901222359 87 276 2.0 2.0 0.00 0.00 0.00 62 1022.2
20260901221854 87 285 0.0 2.0 0.00 0.00 0.00 63 1022.2
20260901221349 86 247 1.0 3.0 0.00 0.00 0.00 65 1022.1
20260901220844 86 50 0.0 0.0 0.00 0.00 0.00 64 1022.1
20260901220343 83 306 1.0 1.0 0.00 0.00 0.00 71 1022.2
20260901215842 83 288 2.0 2.0 0.00 0.00 0.00 70 1022.1
20260901215341 82 233 0.0 2.0 0.00 0.00 0.00 72 1022.3
20260901214840 82 297 0.0 0.0 0.00 0.00 0.00 73 1022.1
20260901214339 82 297 0.0 0.0 0.00 0.00 0.00 74 1022.2
20260901213834 82 186 0.0 0.0 0.00 0.00 0.00 73 1022.1
20260901213334 82 208 0.0 2.0 0.00 0.00 0.00 73 1022.5
20260901212828 83 275 0.0 2.0 0.00 0.00 0.00 71 1022.2
20260901212324 82 301 1.0 2.0 0.00 0.00 0.00 72 1022.3
20260901211820 83 231 2.0 3.0 0.00 0.00 0.00 71 1022.2
20260901211316 82 284 1.0 3.0 0.00 0.00 0.00 72 1022.2
20260901210811 82 213 0.0 3.0 0.00 0.00 0.00 72 1022.2
20260901210307 82 99 2.0 3.0 0.00 0.00 0.00 73 1022.2
20260901205803 82 164 0.0 1.0 0.00 0.00 0.00 71 1022.7
20260901205306 82 117 0.0 1.0 0.00 0.00 0.00 70 1022.5
20260901204758 83 269 0.0 4.0 0.00 0.00 0.00 69 1022.3
20260901204254 83 243 1.0 2.0 0.00 0.00 0.00 70 1022.3
20260901203754 83 240 3.0 5.0 0.00 0.00 0.00 70 1022.5
20260901203248 84 229 5.0 8.0 0.00 0.00 0.00 66 1022.3
20260901202742 84 229 6.0 6.0 0.00 0.00 0.00 68 1022.2
20260901202238 84 251 4.0 5.0 0.00 0.00 0.00 67 1022.3
20260901201733 84 5 2.0 4.0 0.00 0.00 0.00 66 1022.6
20260901201233 84 309 2.0 4.0 0.00 0.00 0.00 68 1022.7
20260901200732 85 237 4.0 5.0 0.00 0.00 0.00 67 1022.9
20260901200228 85 193 2.0 6.0 0.00 0.00 0.00 65 1022.9
20260901195726 85 212 3.0 3.0 0.00 0.00 0.00 64 1022.7
20260901195220 85 262 4.0 4.0 0.00 0.00 0.00 64 1022.6
20260901194715 84 290 0.0 4.0 0.00 0.00 0.00 64 1022.9
20260901194210 84 250 1.0 5.0 0.00 0.00 0.00 62 1023.0
20260901193701 84 226 2.0 3.0 0.00 0.00 0.00 65 1023.0
20260901193154 84 232 3.0 5.0 0.00 0.00 0.00 62 1023.1
20260901192649 84 267 3.0 5.0 0.00 0.00 0.00 62 1022.8
20260901192144 83 344 0.0 3.0 0.00 0.00 0.00 68 1023.4
20260901191640 84 288 1.0 6.0 0.00 0.00 0.00 63 1023.0
20260901191136 83 226 4.0 5.0 0.00 0.00 0.00 67 1023.3
20260901190632 83 226 2.0 6.0 0.00 0.00 0.00 65 1023.4
20260901190131 83 153 4.0 10.0 0.00 0.00 0.00 64 1023.2
20260901185630 83 235 3.0 5.0 0.00 0.00 0.00 67 1023.4
20260901185128 83 235 3.0 5.0 0.00 0.00 0.00 67 1023.4
20260901184624 82 321 1.0 2.0 0.00 0.00 0.00 70 1023.4
20260901184119 83 264 1.0 5.0 0.00 0.00 0.00 68 1023.6
20260901183614 85 243 4.0 6.0 0.00 0.00 0.00 67 1023.5
20260901183109 85 243 4.0 6.0 0.00 0.00 0.00 67 1023.5
20260901182606 84 86 0.0 4.0 0.00 0.00 0.00 63 1023.7
20260901182105 84 205 2.0 4.0 0.00 0.00 0.00 64 1023.9
20260901181604 85 231 6.0 11.0 0.00 0.00 0.00 64 1023.9
20260901181058 84 256 5.0 9.0 0.00 0.00 0.00 66 1023.8
20260901180557 85 273 2.0 7.0 0.00 0.00 0.00 67 1023.5
20260901180052 86 281 1.0 4.0 0.00 0.00 0.00 66 1023.9
20260901175546 85 267 3.0 6.0 0.00 0.00 0.00 62 1023.9
20260901175046 85 319 3.0 7.0 0.00 0.00 0.00 62 1023.8
20260901174542 84 349 4.0 6.0 0.00 0.00 0.00 65 1024.0
20260901174038 83 8 4.0 9.0 0.00 0.00 0.00 66 1024.2
20260901173532 84 322 2.0 8.0 0.00 0.00 0.00 66 1023.9
20260901173028 85 3 3.0 5.0 0.00 0.00 0.00 65 1023.9
20260901172524 85 264 3.0 8.0 0.00 0.00 0.00 63 1023.9
20260901172022 85 218 2.0 9.0 0.00 0.00 0.00 64 1023.7
20260901171521 83 330 3.0 6.0 0.00 0.00 0.00 67 1024.0
20260901171020 84 275 2.0 6.0 0.00 0.00 0.00 68 1023.8
20260901170514 83 28 3.0 4.0 0.00 0.00 0.00 68 1023.7
20260901170009 85 323 3.0 4.0 0.00 0.00 0.00 67 1023.7
20260901165503 85 355 7.0 9.0 0.00 0.00 0.00 65 1023.6
20260901164959 85 231 3.0 8.0 0.00 0.00 0.00 63 1023.6
20260901164454 85 267 1.0 5.0 0.00 0.00 0.00 63 1023.6
20260901163949 84 232 6.0 6.0 0.00 0.00 0.00 67 1023.8
20260901163444 84 257 2.0 8.0 0.00 0.00 0.00 64 1023.4
20260901162943 84 236 9.0 9.0 0.00 0.00 0.00 66 1023.7
20260901162438 84 208 1.0 4.0 0.00 0.00 0.00 66 1023.8
20260901161937 84 359 2.0 6.0 0.00 0.00 0.00 68 1023.7
20260901161437 83 351 5.0 7.0 0.00 0.00 0.00 65 1023.6
20260901160932 82 26 4.0 5.0 0.00 0.00 0.00 68 1023.8
20260901160428 83 359 3.0 4.0 0.00 0.00 0.00 68 1023.4
20260901155927 83 333 5.0 5.0 0.00 0.00 0.00 68 1023.7
20260901155422 83 261 5.0 10.0 0.00 0.00 0.00 67 1023.5
20260901154918 84 223 6.0 8.0 0.00 0.00 0.00 65 1023.5
20260901154417 83 251 2.0 6.0 0.00 0.00 0.00 66 1023.1
20260901153913 83 49 2.0 8.0 0.00 0.00 0.00 68 1023.4
20260901153412 83 201 4.0 6.0 0.00 0.00 0.00 67 1023.3
20260901152906 82 220 2.0 4.0 0.00 0.00 0.00 70 1023.3
20260901152401 83 247 2.0 5.0 0.00 0.00 0.00 70 1023.5
20260901151856 82 235 0.0 2.0 0.00 0.00 0.00 73 1023.4
20260901151356 82 134 0.0 5.0 0.00 0.00 0.00 74 1023.4
20260901150855 81 239 1.0 5.0 0.00 0.00 0.00 73 1023.7
20260901150353 81 205 0.0 3.0 0.00 0.00 0.00 75 1023.5
20260901145851 80 241 2.0 5.0 0.00 0.00 0.00 75 1023.8
20260901145350 80 297 0.0 2.0 0.00 0.00 0.00 75 1023.6
20260901144846 80 212 0.0 5.0 0.00 0.00 0.00 76 1023.6
20260901144341 80 284 0.0 2.0 0.00 0.00 0.00 77 1023.8
20260901143836 79 119 0.0 0.0 0.00 0.00 0.00 78 1023.9
20260901143333 78 0 0.0 1.0 0.00 0.00 0.00 79 1023.8
20260901142829 77 67 2.0 2.0 0.00 0.00 0.00 79 1024.1
20260901142328 78 151 0.0 1.0 0.00 0.00 0.00 79 1024.2
20260901141823 77 142 0.0 1.0 0.00 0.00 0.00 82 1024.2